{"data":{"norad_id":46984,"epoch":"2026-09-20T00:37:11.196192Z","epoch_age_seconds":62936,"freshness":"FRESH","line1":"1 46984U 20086A   26263.02582403 -.00000043  00000+0  78705-4 0  9998","line2":"2 46984  66.0409 298.0721 0007925 269.0884  90.9223 12.80929488272475","mean_motion":12.80929488,"eccentricity":0.0007925,"inclination_deg":66.0409,"raan_deg":298.0721,"arg_perigee_deg":269.0884,"mean_anomaly_deg":90.9223,"bstar":7.8705e-5,"rev_number":27247,"period_min":112.4183659983,"perigee_km":1331.6203697485,"apogee_km":1343.8500271831,"semimajor_km":7715.8721984658,"source":"CELESTRAK","updated_at":"2026-09-20T09:00:33.976387Z"}}